When you browse on this site, cookies collect data to enhance your experience and personalize the content and advertising you see.
Visit our Privacy Policy to learn more. By continuing to use the site, you agree to this use of cookies and data.

Meteo orario Bor

Oggi, 13 Luglio, Lunedi

Tempo Temperatura Precipitazioni Vento Pressione Umidità
00:00 +10°C° 0 mm 3 m/s 752 mm Hg 95%
01:00 +9°C° 0 mm 3 m/s 753 mm Hg 95%
02:00 +9°C° 0 mm 2 m/s 753 mm Hg 94%
03:00 +8°C° 0 mm 3 m/s 752 mm Hg 94%
04:00 +8°C° 0 mm 3 m/s 752 mm Hg 95%
05:00 +8°C° 0 mm 3 m/s 752 mm Hg 95%
06:00 +9°C° 0 mm 3 m/s 752 mm Hg 89%
07:00 +11°C° 0 mm 3 m/s 752 mm Hg 84%
08:00 +13°C° 0 mm 3 m/s 752 mm Hg 77%
09:00 +14°C° 0 mm 3 m/s 752 mm Hg 72%
10:00 +15°C° 0 mm 4 m/s 751 mm Hg 67%
11:00 +17°C° 0 mm 4 m/s 751 mm Hg 62%
12:00 +18°C° 0.1 mm 4 m/s 751 mm Hg 61%
13:00 +18°C° 0.1 mm 4 m/s 751 mm Hg 59%
14:00 +19°C° 0.1 mm 3 m/s 750 mm Hg 58%
15:00 +19°C° 0 mm 3 m/s 750 mm Hg 59%
16:00 +19°C° 0 mm 3 m/s 750 mm Hg 60%
17:00 +19°C° 0 mm 3 m/s 750 mm Hg 61%
18:00 +18°C° 0 mm 3 m/s 749 mm Hg 67%
19:00 +16°C° 0 mm 2 m/s 749 mm Hg 74%
20:00 +15°C° 0 mm 2 m/s 749 mm Hg 80%
21:00 +14°C° 0 mm 2 m/s 749 mm Hg 84%
22:00 +13°C° 0 mm 2 m/s 750 mm Hg 88%
23:00 +12°C° 0 mm 2 m/s 750 mm Hg 91%

Domani, 14 Luglio, Martedi

Tempo Temperatura Precipitazioni Vento Pressione Umidità
00:00 +10°C° 0 mm 2 m/s 750 mm Hg 93%
01:00 +10°C° 0 mm 2 m/s 750 mm Hg 94%
02:00 +9°C° 0 mm 2 m/s 750 mm Hg 95%
03:00 +9°C° 0 mm 2 m/s 750 mm Hg 96%
04:00 +9°C° 0 mm 2 m/s 750 mm Hg 97%
05:00 +9°C° 0 mm 2 m/s 750 mm Hg 97%
06:00 +12°C° 0 mm 2 m/s 750 mm Hg 91%
07:00 +14°C° 0 mm 2 m/s 750 mm Hg 86%
08:00 +16°C° 0 mm 2 m/s 750 mm Hg 80%
09:00 +17°C° 0 mm 3 m/s 750 mm Hg 75%
10:00 +18°C° 0 mm 3 m/s 749 mm Hg 70%
11:00 +20°C° 0 mm 3 m/s 749 mm Hg 64%
12:00 +20°C° 0.2 mm 3 m/s 749 mm Hg 63%
13:00 +21°C° 0.2 mm 3 m/s 749 mm Hg 62%
14:00 +21°C° 0.2 mm 4 m/s 749 mm Hg 61%
15:00 +21°C° 0.1 mm 3 m/s 749 mm Hg 61%
16:00 +21°C° 0.1 mm 3 m/s 748 mm Hg 62%
17:00 +21°C° 0.1 mm 3 m/s 748 mm Hg 62%
18:00 +19°C° 0 mm 3 m/s 748 mm Hg 68%
19:00 +18°C° 0 mm 2 m/s 748 mm Hg 75%
20:00 +16°C° 0 mm 2 m/s 748 mm Hg 81%
21:00 +15°C° 0 mm 2 m/s 748 mm Hg 84%
22:00 +14°C° 0 mm 2 m/s 748 mm Hg 87%
23:00 +13°C° 0 mm 2 m/s 748 mm Hg 90%

Dopodomani, 15 Luglio, Mercoledi

Tempo Temperatura Precipitazioni Vento Pressione Umidità
00:00 +13°C° 0 mm 2 m/s 748 mm Hg 92%
01:00 +13°C° 0 mm 2 m/s 748 mm Hg 93%
02:00 +12°C° 0 mm 2 m/s 748 mm Hg 95%
03:00 +12°C° 0 mm 2 m/s 748 mm Hg 95%
04:00 +12°C° 0 mm 2 m/s 748 mm Hg 96%
05:00 +12°C° 0 mm 2 m/s 747 mm Hg 97%
06:00 +14°C° 0 mm 2 m/s 748 mm Hg 92%
07:00 +14°C° 0 mm 3 m/s 748 mm Hg 87%
08:00 +17°C° 0 mm 3 m/s 748 mm Hg 82%
09:00 +18°C° 0 mm 3 m/s 748 mm Hg 75%
10:00 +19°C° 0 mm 3 m/s 748 mm Hg 69%
11:00 +21°C° 0 mm 3 m/s 748 mm Hg 62%
12:00 +21°C° 0 mm 3 m/s 748 mm Hg 61%
13:00 +22°C° 0 mm 3 m/s 748 mm Hg 59%
14:00 +22°C° 0 mm 3 m/s 748 mm Hg 58%
15:00 +23°C° 0.1 mm 2 m/s 748 mm Hg 59%
16:00 +23°C° 0.1 mm 2 m/s 747 mm Hg 61%
17:00 +23°C° 0.1 mm 2 m/s 747 mm Hg 63%
18:00 +22°C° 0.1 mm 1 m/s 747 mm Hg 69%
19:00 +20°C° 0.1 mm 1 m/s 747 mm Hg 75%
20:00 +19°C° 0.1 mm 1 m/s 747 mm Hg 81%
21:00 +18°C° 0 mm 1 m/s 748 mm Hg 83%
22:00 +15°C° 0 mm 0 m/s 748 mm Hg 86%
23:00 +14°C° 0 mm 0 m/s 748 mm Hg 88%

16 Luglio, Giovedi

Tempo Temperatura Precipitazioni Vento Pressione Umidità
00:00 +13°C° 0 mm 0 m/s 748 mm Hg 89%
01:00 +13°C° 0 mm 0 m/s 748 mm Hg 89%
02:00 +13°C° 0 mm 0 m/s 748 mm Hg 90%
03:00 +13°C° 0 mm 0 m/s 748 mm Hg 91%
04:00 +12°C° 0 mm 0 m/s 747 mm Hg 91%
05:00 +12°C° 0 mm 0 m/s 747 mm Hg 91%
06:00 +14°C° 0 mm 0 m/s 747 mm Hg 86%
07:00 +16°C° 0 mm 0 m/s 747 mm Hg 81%
08:00 +18°C° 0 mm 0 m/s 748 mm Hg 75%
09:00 +20°C° 0 mm 0 m/s 747 mm Hg 69%
10:00 +22°C° 0 mm 0 m/s 747 mm Hg 63%
11:00 +23°C° 0 mm 0 m/s 747 mm Hg 58%
12:00 +25°C° 0.2 mm 1 m/s 747 mm Hg 56%
13:00 +25°C° 0.2 mm 1 m/s 747 mm Hg 55%
14:00 +26°C° 0.2 mm 1 m/s 747 mm Hg 54%
15:00 +25°C° 0.2 mm 1 m/s 746 mm Hg 58%
16:00 +25°C° 0.2 mm 1 m/s 746 mm Hg 62%
17:00 +24°C° 0.2 mm 1 m/s 746 mm Hg 66%
18:00 +23°C° 0.4 mm 1 m/s 746 mm Hg 71%
19:00 +19°C° 0.4 mm 0 m/s 746 mm Hg 76%
20:00 +18°C° 0.4 mm 0 m/s 746 mm Hg 81%
21:00 +19°C° 0.1 mm 1 m/s 746 mm Hg 83%
22:00 +18°C° 0.1 mm 1 m/s 746 mm Hg 85%
23:00 +16°C° 0.1 mm 1 m/s 746 mm Hg 87%

17 Luglio, Venerdi

Tempo Temperatura Precipitazioni Vento Pressione Umidità
00:00 +16°C° 0 mm 1 m/s 746 mm Hg 88%
01:00 +16°C° 0 mm 1 m/s 747 mm Hg 89%
02:00 +15°C° 0 mm 1 m/s 747 mm Hg 90%
03:00 +15°C° 0 mm 1 m/s 747 mm Hg 90%
04:00 +15°C° 0 mm 1 m/s 747 mm Hg 91%
05:00 +15°C° 0 mm 1 m/s 747 mm Hg 91%
06:00 +16°C° 0 mm 1 m/s 747 mm Hg 87%
07:00 +18°C° 0 mm 2 m/s 747 mm Hg 83%
08:00 +19°C° 0 mm 2 m/s 747 mm Hg 79%
09:00 +21°C° 0.3 mm 2 m/s 747 mm Hg 74%
10:00 +23°C° 0.3 mm 2 m/s 747 mm Hg 69%
11:00 +24°C° 0.3 mm 2 m/s 747 mm Hg 64%
12:00 +24°C° 0.6 mm 2 m/s 747 mm Hg 66%
13:00 +24°C° 0.6 mm 2 m/s 747 mm Hg 68%
14:00 +24°C° 0.6 mm 2 m/s 747 mm Hg 70%
15:00 +24°C° 0.5 mm 2 m/s 747 mm Hg 73%
16:00 +24°C° 0.5 mm 1 m/s 747 mm Hg 76%
17:00 +23°C° 0.5 mm 1 m/s 747 mm Hg 79%
18:00 +22°C° 0.2 mm 1 m/s 747 mm Hg 82%
19:00 +20°C° 0.2 mm 2 m/s 747 mm Hg 84%
20:00 +19°C° 0.2 mm 2 m/s 747 mm Hg 87%
21:00 +18°C° 0 mm 2 m/s 748 mm Hg 88%
22:00 +17°C° 0 mm 2 m/s 748 mm Hg 89%
23:00 +17°C° 0 mm 2 m/s 748 mm Hg 90%

18 Luglio, Sabato

Tempo Temperatura Precipitazioni Vento Pressione Umidità
00:00 +16°C° 0 mm 2 m/s 748 mm Hg 90%
01:00 +16°C° 0 mm 2 m/s 748 mm Hg 90%
02:00 +15°C° 0 mm 2 m/s 748 mm Hg 90%
03:00 +16°C° 0 mm 2 m/s 748 mm Hg 91%
04:00 +16°C° 0 mm 2 m/s 749 mm Hg 93%
05:00 +16°C° 0 mm 2 m/s 749 mm Hg 95%
06:00 +17°C° 0 mm 3 m/s 749 mm Hg 91%
07:00 +18°C° 0 mm 3 m/s 749 mm Hg 87%
08:00 +20°C° 0 mm 3 m/s 749 mm Hg 83%
09:00 +21°C° 0.2 mm 3 m/s 749 mm Hg 79%
10:00 +22°C° 0.2 mm 4 m/s 749 mm Hg 74%
11:00 +23°C° 0.2 mm 4 m/s 749 mm Hg 70%
12:00 +25°C° 0.4 mm 4 m/s 750 mm Hg 69%
13:00 +25°C° 0.4 mm 4 m/s 750 mm Hg 68%
14:00 +26°C° 0.4 mm 4 m/s 750 mm Hg 67%
15:00 +25°C° 0.3 mm 4 m/s 750 mm Hg 69%
16:00 +25°C° 0.3 mm 3 m/s 750 mm Hg 72%
17:00 +24°C° 0.3 mm 3 m/s 749 mm Hg 74%
18:00 +22°C° 0 mm 3 m/s 750 mm Hg 77%
19:00 +22°C° 0 mm 3 m/s 750 mm Hg 80%
20:00 +21°C° 0 mm 3 m/s 750 mm Hg 83%
21:00 +20°C° 0 mm 3 m/s 750 mm Hg 83%
22:00 +19°C° 0 mm 3 m/s 750 mm Hg 82%
23:00 +18°C° 0 mm 3 m/s 751 mm Hg 82%
Mostrare altro